Temperature
23 24 23 23 23 23 23 23 23 23 23 22 23 23 23 22 21 21 21 20 20 19 19 18 17 17 17 16 16 16 16 16 15 15 15 15 14 14 14 14 14 14 13 13
23 23 23 23 23 23 23 23 23 23 22 22 23 23 23 22 21 21 21 21 20 19 18 17 17 17 17 16 16 16 16 16 15 15 15 14 14 14 14 14 14 13 13 13
23 23 23 22 22 22 23 23 23 23 22 22 22 23 23 22 21 20 20 20 20 19 19 18 17 17 17 17 17 16 16 16 15 15 15 15 14 14 14 14 14 13 13 13
23 23 22 22 22 22 23 23 22 22 22 22 22 22 23 23 22 21 20 20 20 19 18 18 17 17 17 17 16 16 16 16 15 15 15 14 14 14 14 14 13 13 13 13
23 22 22 22 22 22 22 22 22 22 22 22 22 22 23 22 22 22 21 20 20 19 18 18 17 17 17 17 16 16 16 15 15 15 15 14 14 14 14 14 13 13 13 13
23 22 22 22 22 22 22 22 21 21 22 22 22 22 23 23 22 22 22 21 20 19 18 18 17 17 17 17 16 16 16 15 15 15 15 14 14 14 14 13 13 13 13 13
22 22 22 22 22 22 22 22 22 22 21 22 22 22 22 23 22 22 21 21 19 18 18 17 17 17 16 16 16 16 16 15 15 15 15 14 14 14 13 13 13 13 12 12
22 22 22 22 22 22 22 22 21 21 22 22 22 22 23 22 21 20 20 19 19 18 18 17 17 17 16 16 16 16 16 15 15 15 14 14 14 13 13 13 13 12 12 12
22 22 22 21 21 22 22 22 22 22 22 21 22 22 23 22 21 20 20 19 19 18 17 17 17 17 16 16 16 16 16 15 15 14 14 14 14 13 13 13 12 12 12 12
22 21 21 21 21 21 22 22 22 21 21 21 22 22 22 22 22 21 20 19 18 18 17 17 17 17 16 16 16 16 15 15 15 14 14 14 13 13 13 13 12 12 12 12
21 21 21 21 21 21 21 21 21 21 21 21 21 22 22 22 21 21 20 19 18 17 17 16 16 16 16 16 16 15 15 15 14 14 14 14 13 13 13 13 12 12 12 11
20 21 21 21 21 20 21 21 21 21 21 21 21 21 21 21 20 20 19 18 17 17 16 16 16 16 16 15 15 15 15 15 14 14 14 13 13 13 13 12 12 12 12 11
19 20 20 20 20 20 20 20 20 21 21 21 20 21 21 20 20 19 18 18 17 16 16 16 15 15 15 15 15 15 15 14 14 14 14 13 13 13 13 12 12 12 11 11
18 20 20 20 20 20 20 19 19 20 20 20 21 21 21 21 20 20 18 18 17 16 16 15 15 15 15 15 15 15 14 14 14 14 13 13 13 13 12 12 12 12 11 11
19 19 20 19 19 19 19 19 19 19 20 20 21 20 21 21 20 19 18 17 17 16 15 15 15 15 14 14 14 14 14 14 14 14 13 13 13 12 12 12 12 12 11 11
18 18 19 18 18 18 18 19 19 19 19 19 19 19 20 19 19 18 17 17 16 16 15 15 15 14 14 14 14 14 14 14 14 14 13 13 12 12 12 12 11 11 11 10
17 18 18 18 18 18 18 19 18 18 18 19 19 19 19 19 18 17 16 16 16 15 15 15 14 14 14 14 14 14 14 13 13 13 13 12 12 12 12 11 11 11 10 10
17 17 17 17 18 17 19 18 18 18 17 18 18 18 18 17 16 15 14 14 14 14 14 14 14 14 14 14 13 13 13 13 13 12 12 12 12 12 11 11 11 10 10 10
16 16 16 17 17 18 18 17 17 17 17 17 17 17 16 16 16 16 14 13 13 13 13 13 13 13 13 13 13 13 13 12 12 12 12 12 12 11 11 11 10 10 10 9
15 15 16 16 16 17 17 17 16 17 17 16 16 16 15 15 17 17 14 13 13 13 13 13 13 13 13 13 13 12 12 12 12 12 12 11 11 11 11 10 10 10 9 9
15 15 15 16 16 17 16 15 16 16 17 15 14 14 15 15 16 14 13 13 12 12 12 12 12 12 12 12 12 12 12 12 11 11 11 11 11 10 10 10 9 9 9 9
15 15 15 16 16 16 15 15 15 15 14 13 13 13 13 13 13 12 12 12 12 12 12 12 12 12 12 12 12 11 11 11 11 11 10 10 10 10 10 9 9 9 8 8
14 15 15 15 15 14 13 13 13 12 13 12 12 12 12 12 12 11 11 11 11 11 11 11 11 11 11 11 11 11 11 11 11 10 10 10 9 9 9 9 9 8 8 8
14 13 14 14 14 13 12 12 11 11 12 11 11 11 11 11 11 11 11 11 11 11 11 11 11 11 10 11 11 11 10 10 10 10 9 9 9 9 9 8 8 8 8 7
13 13 13 14 14 13 12 11 11 11 11 11 11 11 11 11 10 10 10 10 10 10 10 10 10 10 10 10 10 10 10 10 9 9 9 9 8 8 8 8 8 8 7 7
12 12 13 13 13 13 12 11 11 10 10 10 10 10 10 10 10 10 10 10 10 10 10 10 10 10 10 10 10 10 10 9 9 9 9 8 8 8 7 7 7 7 7 7
Wind_Speed
5 6 7 6 6 5 5 6 6 4 3 7 10 10 8 9 11 12 12 12 12 11 10 9 9 8 8 7 7 7 6 6 5 4 3 2 2 2 1 2 2 2 2 2
7 8 7 5 5 6 7 7 7 4 3 6 9 11 9 10 12 12 13 13 12 12 11 10 10 9 9 8 8 8 7 6 5 3 3 2 2 2 1 1 1 1 1 1
9 4 5 7 7 8 9 8 7 6 3 6 7 9 9 9 10 11 12 12 12 12 12 12 11 10 10 9 9 7 8 7 6 5 3 3 3 2 2 2 1 1 1 1
7 6 6 8 8 8 8 5 6 6 7 5 5 7 5 6 8 10 12 12 13 13 12 12 11 11 10 9 8 8 8 7 6 6 5 5 3 3 2 2 2 1 1 1
5 5 7 9 7 8 5 3 5 6 7 8 7 7 4 3 7 9 11 12 13 13 13 13 12 11 10 9 8 8 8 7 7 6 6 5 4 3 2 2 2 1 1 1
5 4 5 5 4 5 5 4 4 5 6 8 6 7 5 3 5 5 6 10 11 12 12 12 10 10 9 9 8 8 8 8 7 7 7 6 5 4 4 3 2 2 1 1
5 5 5 5 5 6 7 6 5 5 6 5 3 6 5 2 3 5 5 6 8 10 11 11 11 11 10 10 9 9 9 8 8 8 7 6 5 5 5 3 3 2 1 1
5 5 5 5 6 6 8 8 6 5 5 4 4 6 3 1 3 3 4 4 6 8 10 11 11 11 11 10 10 10 9 9 8 8 7 6 5 4 3 3 3 3 2 1
5 4 3 3 3 6 6 8 6 7 7 6 5 4 3 2 3 3 2 3 5 7 9 10 10 10 10 10 10 10 10 9 8 8 7 6 5 5 4 4 3 2 2 2
4 5 3 3 4 2 6 5 5 6 5 6 5 6 4 2 2 2 2 3 4 5 7 8 9 9 9 9 9 9 9 9 8 8 6 5 5 5 4 4 4 3 3 2
5 6 4 5 7 6 6 6 6 6 6 6 6 2 1 2 3 3 2 2 3 4 6 7 7 8 8 8 9 9 9 8 8 7 7 6 6 5 5 4 4 4 3 3
3 5 7 6 3 3 6 8 8 8 8 8 7 4 1 2 3 3 2 1 2 3 4 5 6 7 8 9 9 9 9 8 7 7 7 7 6 6 5 5 5 4 4 4
2 5 6 5 5 5 5 6 8 9 9 9 10 6 1 1 3 2 2 1 1 2 4 4 5 6 8 8 9 9 8 8 7 7 7 7 7 6 6 5 5 4 4 4
3 6 9 9 6 4 6 6 7 9 9 11 12 11 7 6 6 5 4 3 2 2 3 4 5 6 7 7 8 8 8 8 7 7 7 7 7 7 6 5 5 5 5 4
3 7 8 9 8 7 9 10 10 12 13 13 12 11 11 9 7 6 5 4 3 3 4 5 5 6 6 7 7 7 8 8 8 8 8 7 7 6 6 5 5 5 5 5
3 5 6 8 7 7 9 11 11 12 12 13 13 13 9 7 5 4 4 3 3 3 4 5 5 6 6 7 7 7 7 8 8 8 8 7 7 7 6 6 5 5 5 5
3 5 6 8 6 7 9 9 10 10 9 10 12 10 7 6 4 4 3 3 2 2 3 4 5 6 6 6 6 7 7 7 8 8 7 7 7 7 7 6 6 5 5 5
6 6 5 6 7 9 4 2 4 6 6 8 9 8 7 6 3 2 1 1 2 3 3 3 4 5 5 6 6 6 6 7 7 7 7 7 7 7 7 6 6 6 5 5
7 7 5 5 7 8 6 3 4 6 5 4 5 5 4 4 3 2 2 2 2 3 3 3 3 3 4 5 6 6 6 6 7 6 6 6 7 7 7 6 6 5 5 5
5 7 7 7 8 7 4 3 4 6 6 3 3 3 3 2 4 2 2 2 2 3 3 2 1 2 4 5 6 7 6 6 6 6 5 5 6 6 6 6 5 5 4 4
3 4 7 9 8 6 4 3 3 5 3 3 3 3 3 4 4 3 2 2 2 2 2 2 1 2 3 4 6 6 6 6 5 4 5 5 5 5 5 5 4 4 4 4
4 4 6 6 7 5 3 0 1 3 4 4 5 4 4 4 4 3 3 2 2 2 2 1 1 2 2 4 5 5 5 4 4 4 4 4 5 4 4 5 4 4 4 4
5 4 3 4 3 2 1 1 3 4 4 5 6 6 5 4 4 4 4 4 3 3 2 2 2 2 3 4 5 5 4 3 4 4 4 4 5 4 4 5 5 4 4 4
4 4 5 5 6 5 4 5 5 6 6 6 6 6 4 5 5 5 5 4 4 4 3 3 2 3 4 5 5 5 4 4 4 4 4 4 4 4 4 3 4 4 4 4
6 4 6 9 9 7 7 6 7 7 7 7 7 6 6 6 6 5 5 5 4 4 4 4 4 4 5 5 5 5 5 5 5 4 4 3 3 3 3 3 3 4 4 3
8 8 9 9 8 8 9 8 8 9 9 8 8 7 6 6 7 6 6 5 5 5 4 5 5 5 5 5 5 5 5 6 6 4 4 3 3 3 3 3 2 1 2 2
Wind_Direction
195 212 217 218 225 246 245 248 253 253 227 234 247 253 240 213 215 218 215 210 208 207 199 191 189 189 187 184 184 178 174 170 162 160 165 159 156 145 120 81 55 58 43 45
201 220 228 225 218 232 241 246 250 246 229 248 262 261 250 229 223 224 222 217 213 208 199 193 193 191 191 188 190 188 184 180 176 177 178 172 162 153 125 111 86 52 40 41
218 214 206 213 218 230 239 246 253 260 252 240 269 260 238 227 226 226 228 226 218 210 204 197 197 195 193 192 195 194 190 186 181 173 164 152 146 151 153 157 137 65 42 56
225 223 211 219 225 235 241 242 252 250 255 260 253 275 249 226 223 221 221 218 218 210 207 202 198 197 198 196 194 196 192 190 183 177 180 179 186 187 186 182 157 122 81 89
212 211 216 224 228 230 242 237 238 248 256 265 243 262 264 219 231 229 222 216 214 209 204 202 199 198 199 194 192 194 192 190 184 188 187 197 198 191 173 171 157 159 132 102
233 223 233 231 220 215 195 198 204 226 246 252 246 250 271 237 248 246 228 218 211 205 200 199 196 194 194 190 187 188 190 189 185 189 192 198 195 188 180 181 174 180 160 148
219 208 207 216 210 196 213 238 243 231 227 246 218 245 260 293 280 267 253 226 206 200 197 194 192 190 189 188 187 187 188 188 187 190 195 197 199 195 195 191 186 190 183 178
229 216 196 207 227 224 216 232 248 265 262 269 219 243 262 321 292 270 254 229 202 195 196 195 193 192 190 189 189 189 190 190 187 190 193 195 196 201 203 197 193 195 200 196
243 223 167 195 224 235 219 223 254 269 274 273 248 248 272 259 261 252 235 209 201 192 193 194 192 192 191 189 190 192 190 190 189 191 188 188 193 197 197 197 199 198 200 192
261 252 212 193 189 214 242 221 223 243 263 262 254 256 264 269 283 255 224 210 205 194 191 193 191 191 191 190 188 188 190 192 190 190 189 187 193 194 199 201 203 199 195 193
249 248 222 200 219 228 198 210 228 241 249 265 270 256 333 301 321 313 280 233 213 198 195 194 192 190 188 184 183 185 187 189 189 191 190 189 189 192 197 204 206 205 200 196
237 254 248 238 238 261 238 231 231 242 244 247 267 267 65 295 305 303 297 253 204 195 191 188 186 185 184 184 184 186 187 188 188 188 190 193 187 192 198 201 202 206 206 201
227 241 251 232 206 197 221 230 236 245 254 248 250 252 111 291 301 298 282 256 195 190 185 185 186 189 188 185 184 185 188 187 185 185 189 191 191 194 199 200 195 199 198 200
256 247 253 259 270 251 242 238 231 236 247 251 248 262 273 284 292 294 284 270 244 207 193 192 193 194 193 187 185 184 186 184 183 184 190 195 198 199 198 197 195 197 196 198
253 257 259 267 271 260 259 255 238 239 251 260 266 267 276 285 288 286 278 266 241 217 204 202 201 196 192 190 190 187 184 182 182 185 192 198 199 198 196 194 197 197 197 201
275 261 265 263 258 260 263 263 255 251 255 257 264 269 280 291 288 285 281 274 247 229 218 211 204 200 197 194 193 188 184 183 184 189 194 191 194 193 194 197 199 200 202 205
255 251 259 265 267 271 264 261 253 249 248 249 257 270 287 286 288 293 297 288 276 270 256 232 213 207 204 200 195 191 186 182 187 190 191 188 193 195 198 196 198 201 205 209
247 249 257 269 263 254 279 326 265 251 267 268 265 274 283 285 282 288 330 313 300 301 283 263 236 215 207 200 192 187 181 183 187 191 189 189 192 194 196 198 202 206 211 212
234 239 244 252 257 262 261 271 266 251 261 300 283 283 290 292 248 180 50 352 333 326 308 281 256 224 200 190 185 178 178 183 188 191 190 191 193 194 195 200 205 209 211 217
207 225 236 241 253 261 279 309 289 254 249 346 322 301 295 272 251 252 4 343 342 352 349 337 282 219 192 183 180 177 177 184 191 193 191 189 194 195 196 201 203 204 209 217
200 213 226 241 251 263 322 328 260 241 293 2 337 324 293 268 298 323 331 331 341 350 353 350 295 222 194 183 182 182 182 190 189 182 184 185 190 193 194 198 198 197 201 209
241 233 232 237 243 250 31 1 249 323 353 346 336 330 319 312 324 320 304 309 314 321 328 330 273 228 195 184 188 192 191 184 174 172 181 182 182 185 189 189 194 199 200 208
234 248 261 245 261 0 5 305 323 324 316 322 320 319 321 315 308 302 296 293 286 280 286 292 269 229 203 194 196 201 195 178 173 177 180 180 180 184 188 189 192 201 207 214
246 257 251 259 260 280 292 296 304 302 302 304 305 306 301 295 295 294 292 286 281 274 275 273 250 232 219 205 206 207 191 184 184 186 184 184 189 187 192 198 202 206 211 215
261 251 254 261 269 278 274 282 292 296 299 299 299 292 287 287 284 284 284 282 278 273 269 260 247 236 228 213 205 200 189 185 190 191 190 192 196 196 201 207 213 218 222 226
247 251 256 264 274 278 285 295 293 290 289 289 291 289 283 279 279 279 279 277 271 270 270 260 250 239 228 217 211 199 191 190 191 193 195 198 200 200 199 198 195 170 213 191
Height
1504 1504 1503 1502 1503 1504 1505 1507 1508 1507 1507 1510 1508 1507 1507 1511 1514 1514 1516 1518 1520 1523 1526 1528 1529 1531 1533 1534 1536 1537 1538 1539 1539 1540 1540 1540 1541 1541 1541 1540 1540 1540 1540 1539
1502 1502 1501 1503 1504 1505 1505 1507 1507 1506 1508 1508 1506 1505 1503 1506 1509 1510 1512 1514 1517 1520 1523 1525 1527 1529 1531 1532 1534 1536 1537 1538 1538 1539 1540 1540 1540 1540 1540 1539 1539 1539 1539 1539
1499 1500 1502 1503 1504 1505 1504 1505 1505 1506 1507 1507 1507 1503 1501 1502 1505 1508 1510 1511 1514 1517 1519 1522 1524 1526 1528 1530 1532 1534 1535 1536 1537 1538 1538 1538 1538 1538 1539 1538 1538 1538 1538 1538
1498 1499 1501 1502 1502 1503 1504 1502 1504 1506 1507 1505 1507 1507 1497 1496 1500 1503 1505 1508 1510 1513 1516 1519 1521 1523 1525 1528 1530 1531 1533 1534 1535 1536 1536 1537 1537 1537 1537 1537 1537 1537 1537 1537
1497 1498 1500 1501 1500 1501 1502 1503 1504 1504 1505 1505 1503 1506 1495 1495 1497 1497 1500 1503 1505 1509 1512 1515 1517 1520 1523 1525 1527 1529 1531 1532 1533 1534 1534 1535 1536 1536 1536 1536 1536 1536 1536 1535
1496 1498 1498 1498 1500 1501 1502 1504 1504 1504 1503 1508 1500 1503 1498 1491 1493 1493 1496 1499 1502 1505 1508 1511 1514 1517 1519 1522 1524 1526 1528 1529 1531 1532 1533 1533 1534 1534 1534 1534 1534 1534 1534 1534
1496 1496 1497 1498 1499 1501 1501 1504 1508 1508 1508 1503 1498 1501 1496 1489 1491 1493 1494 1496 1499 1501 1505 1507 1510 1513 1516 1518 1521 1523 1525 1527 1528 1529 1530 1531 1532 1532 1533 1533 1533 1533 1533 1533
1498 1498 1495 1496 1496 1497 1497 1499 1508 1512 1507 1499 1498 1498 1490 1490 1492 1493 1493 1495 1497 1499 1501 1504 1507 1509 1512 1515 1517 1520 1522 1524 1525 1527 1528 1529 1530 1530 1531 1531 1531 1531 1531 1531
1494 1495 1494 1496 1496 1495 1496 1496 1496 1500 1500 1504 1495 1490 1487 1489 1489 1490 1491 1493 1495 1497 1499 1501 1504 1507 1509 1512 1514 1517 1519 1521 1523 1524 1525 1526 1527 1528 1529 1529 1530 1530 1530 1530
1492 1495 1494 1495 1497 1497 1495 1494 1498 1501 1507 1506 1498 1494 1491 1488 1487 1488 1490 1491 1493 1495 1497 1499 1501 1504 1506 1509 1511 1514 1516 1518 1520 1521 1523 1524 1525 1526 1527 1527 1528 1528 1528 1528
1493 1495 1495 1494 1494 1493 1497 1498 1496 1496 1498 1503 1501 1495 1486 1487 1487 1488 1489 1491 1492 1494 1495 1497 1499 1501 1504 1506 1508 1511 1513 1515 1517 1518 1520 1522 1523 1524 1525 1525 1526 1526 1527 1527
1494 1493 1492 1491 1491 1492 1492 1491 1493 1498 1497 1496 1497 1495 1485 1487 1488 1489 1490 1490 1491 1493 1494 1495 1497 1499 1501 1503 1506 1508 1510 1512 1514 1516 1518 1519 1520 1521 1522 1523 1524 1524 1525 1525
1496 1494 1495 1494 1496 1495 1493 1492 1492 1491 1492 1493 1497 1493 1485 1486 1487 1488 1489 1490 1490 1491 1493 1494 1495 1497 1499 1501 1503 1505 1507 1509 1511 1513 1515 1517 1518 1519 1520 1521 1521 1522 1522 1523
1498 1492 1494 1496 1491 1489 1492 1494 1493 1492 1492 1489 1488 1486 1483 1484 1486 1487 1488 1489 1490 1491 1492 1492 1493 1495 1496 1498 1500 1502 1504 1506 1508 1510 1512 1514 1515 1516 1517 1518 1519 1519 1520 1520
1496 1492 1490 1489 1489 1491 1491 1491 1491 1491 1487 1487 1483 1483 1482 1483 1485 1486 1487 1488 1489 1489 1490 1491 1492 1493 1494 1495 1497 1499 1501 1503 1505 1507 1509 1510 1512 1513 1514 1515 1516 1517 1517 1517
1496 1494 1492 1491 1490 1491 1491 1488 1487 1487 1486 1485 1484 1483 1481 1483 1485 1485 1486 1486 1487 1488 1489 1489 1490 1491 1492 1493 1494 1496 1498 1500 1502 1503 1505 1507 1509 1510 1511 1512 1513 1513 1514 1514
1496 1494 1494 1491 1489 1490 1489 1484 1484 1484 1483 1484 1483 1482 1482 1482 1484 1485 1485 1486 1486 1487 1487 1487 1488 1489 1490 1491 1492 1493 1495 1497 1498 1500 1502 1504 1505 1507 1508 1509 1510 1510 1511 1511
1496 1494 1493 1492 1491 1494 1484 1481 1481 1483 1483 1482 1481 1482 1482 1483 1484 1485 1485 1485 1485 1485 1485 1485 1486 1486 1487 1488 1489 1491 1492 1494 1495 1497 1499 1500 1502 1503 1505 1506 1506 1507 1508 1508
1496 1494 1493 1492 1489 1484 1481 1482 1483 1483 1482 1483 1482 1482 1483 1483 1483 1483 1484 1484 1484 1484 1483 1483 1483 1484 1485 1486 1487 1488 1489 1491 1493 1494 1496 1497 1499 1500 1501 1502 1503 1504 1504 1505
1494 1493 1492 1490 1491 1486 1481 1480 1482 1482 1480 1482 1482 1482 1482 1482 1480 1480 1483 1483 1483 1482 1482 1481 1481 1482 1482 1483 1484 1485 1486 1488 1490 1491 1492 1494 1495 1497 1497 1499 1499 1500 1500 1501
1491 1491 1491 1489 1487 1481 1481 1483 1482 1484 1481 1483 1483 1482 1482 1481 1481 1482 1481 1481 1481 1481 1480 1479 1479 1480 1480 1481 1482 1483 1484 1485 1487 1488 1489 1491 1492 1493 1494 1495 1496 1496 1497 1497
1487 1487 1487 1485 1485 1485 1484 1484 1484 1484 1484 1483 1483 1483 1482 1481 1481 1480 1480 1480 1479 1479 1478 1478 1477 1478 1478 1479 1480 1481 1482 1483 1484 1485 1486 1487 1488 1490 1491 1491 1492 1493 1493 1493
1487 1486 1484 1484 1484 1484 1485 1485 1486 1485 1484 1484 1483 1482 1481 1480 1480 1479 1479 1478 1478 1477 1477 1476 1476 1476 1476 1477 1477 1479 1480 1481 1481 1482 1483 1484 1485 1486 1487 1488 1488 1489 1489 1490
1486 1488 1486 1484 1482 1484 1484 1485 1484 1484 1484 1482 1481 1480 1479 1479 1478 1477 1477 1476 1475 1475 1475 1474 1474 1474 1474 1474 1475 1476 1477 1478 1478 1479 1480 1481 1482 1482 1484 1484 1485 1485 1485 1486
1485 1486 1483 1481 1482 1483 1482 1482 1482 1481 1481 1480 1479 1478 1477 1476 1475 1475 1474 1473 1473 1472 1472 1472 1471 1471 1471 1472 1472 1473 1474 1475 1475 1476 1477 1478 1479 1479 1480 1480 1481 1481 1481 1482
1484 1483 1481 1478 1480 1480 1479 1479 1479 1478 1477 1476 1475 1474 1474 1473 1472 1472 1471 1470 1469 1469 1468 1469 1468 1468 1468 1469 1469 1469 1470 1471 1472 1472 1473 1474 1475 1476 1476 1476 1477 1477 1478 1478